Location: Praha
(50.0830°N, 14.4670°E)
Time: 10:36:41
(UTC+01:00)

ISS - Pass Details

Date: 23 January 2023
Orbit: 412 x 423 km, 51.6° (Epoch: 06 February)

Event Time Altitude Azimuth Distance (km) Brightness Sun altitude
Rises 19:11:28 0° 272° (W) 2,382 1.5 -23.9°
Reaches altitude 10° 19:13:35 10° 275° (W) 1,517 0.1 -24.2°
Enters shadow 19:15:49 37° 289° (WNW) 685 -2.3 -24.6°
